Location: Ames
(42.0350°N, 93.6200°W)
Time: 19:15:03
(UTC-05:00)

ISS - All Passes

Search period start: 01 August 2015 00:00
Search period end: 11 August 2015 00:00
Orbit: 401 x 403 km, 51.6° (Epoch: 01 August)

Date Brightness Start Highest point End Pass type
(mag) Time Alt. Az. Time Alt. Az. Time Alt. Az.
01 Aug - 01:14:58 10° NW 01:16:58 15° N 01:18:59 10° NE visible
01 Aug - 02:51:24 10° NW 02:54:13 26° NNE 02:57:02 10° E visible
01 Aug - 04:27:37 10° WNW 04:30:49 54° SW 04:34:00 10° SE visible
01 Aug - 21:07:08 10° SSW 21:10:06 34° SE 21:13:07 10° ENE visible
01 Aug - 22:43:32 10° W 22:46:32 33° NNW 22:49:33 10° NE visible
02 Aug - 00:21:36 10° NW 00:23:41 16° N 00:25:46 10° NE visible
02 Aug - 01:58:31 10° NW 02:01:00 20° NNE 02:03:31 10° ENE visible
02 Aug - 03:34:35 10° NW 03:37:51 78° NNE 03:41:07 10° ESE visible
02 Aug - 05:12:25 10° WSW 05:13:54 12° SW 05:15:17 10° SSW visible
02 Aug - 20:14:59 10° S 20:17:15 18° SE 20:19:35 10° E daylight
02 Aug - 21:50:14 10° WSW 21:53:26 54° NNW 21:56:39 10° NE visible
02 Aug - 23:28:06 10° WNW 23:30:24 18° NNW 23:32:43 10° NNE visible
03 Aug - 01:05:33 10° NNW 01:07:45 17° N 01:09:57 10° NE visible
03 Aug - 02:41:39 10° NW 02:44:47 44° NNE 02:47:56 10° ESE night (unlit)
03 Aug - 04:18:24 10° W 04:21:05 23° SW 04:23:43 10° S night (unlit)
03 Aug - 20:57:09 10° SW 21:00:24 81° SE 21:03:40 10° ENE visible
03 Aug - 22:34:31 10° WNW 22:37:09 22° NNW 22:39:47 10° NE visible
04 Aug - 00:12:25 10° NW 00:14:26 15° N 00:16:28 10° NE visible
04 Aug - 01:48:45 10° NW 01:51:39 28° NNE 01:54:33 10° E visible
04 Aug - 03:25:02 10° WNW 03:28:11 45° SW 03:31:18 10° SSE night (unlit)
04 Aug - 20:04:22 10° SSW 20:07:27 40° SE 20:10:32 10° ENE daylight
04 Aug - 21:41:01 10° W 21:43:56 30° NNW 21:46:53 10° NE visible
04 Aug - 23:19:05 10° NW 23:21:07 15° N 23:23:10 10° NE visible
05 Aug - 00:55:51 10° NW 00:58:26 21° NNE 01:01:01 10° ENE visible
05 Aug - 02:31:56 10° NW 02:35:13 89° SSW 02:38:28 10° SE night (unlit)
05 Aug - 04:10:41 10° WSW 04:11:12 10° SW 04:11:36 10° SW night (unlit)
05 Aug - 19:12:01 10° S 19:14:32 21° SE 19:17:07 10° E daylight
05 Aug - 20:47:38 10° WSW 20:50:47 47° NNW 20:53:57 10° NE daylight
05 Aug - 22:25:34 10° NW 22:27:49 17° N 22:30:02 10° NNE visible
06 Aug - 00:02:53 10° NNW 00:05:09 17° N 00:07:26 10° NE visible
06 Aug - 01:38:57 10° NW 01:42:08 50° NNE 01:45:20 10° ESE visible
06 Aug - 03:15:53 10° W 03:18:22 20° SW 03:20:47 10° S night (unlit)
06 Aug - 18:20:43 10° SSE 18:21:41 11° SE 18:22:46 10° ESE daylight
06 Aug - 19:54:27 10° WSW 19:57:42 85° NW 20:00:58 10° NE daylight
06 Aug - 21:31:58 10° WNW 21:34:31 20° NNW 21:37:03 10° NE visible
06 Aug - 23:09:46 10° NW 23:11:49 15° N 23:13:53 10° NE visible
07 Aug - 00:46:01 10° NW 00:48:59 31° NNE 00:51:58 10° E visible
07 Aug - 02:22:24 10° WNW 02:25:27 37° SW 02:28:30 10° SSE night (unlit)
07 Aug - 19:01:33 10° SW 19:04:41 49° SE 19:07:52 10° ENE daylight
07 Aug - 20:38:24 10° W 20:41:15 27° NNW 20:44:07 10° NE daylight
07 Aug - 22:16:28 10° NW 22:18:28 15° N 22:20:29 10° NE visible
07 Aug - 23:53:05 10° NW 23:55:45 23° NNE 23:58:26 10° ENE visible
08 Aug - 01:29:13 10° WNW 01:32:29 75° SW 01:35:43 10° SE night (unlit)
08 Aug - 18:09:01 10° SSW 18:11:44 25° SE 18:14:30 10° ENE daylight
08 Aug - 19:44:57 10° W 19:48:03 41° NNW 19:51:10 10° NE daylight
08 Aug - 21:22:57 10° NW 21:25:07 16° N 21:27:17 10° NNE visible
08 Aug - 23:00:07 10° NW 23:02:27 18° NNE 23:04:49 10° ENE visible
09 Aug - 00:36:10 10° NW 00:39:24 58° NNE 00:42:37 10° ESE visible
09 Aug - 02:13:21 10° W 02:15:34 17° SW 02:17:41 10° S night (unlit)
09 Aug - 17:17:14 10° SSE 17:18:51 13° SE 17:20:33 10° E daylight
09 Aug - 18:51:41 10° WSW 18:54:56 72° NNW 18:58:11 10° NE daylight
09 Aug - 20:29:20 10° WNW 20:31:47 19° NNW 20:34:14 10° NE daylight
09 Aug - 22:07:01 10° NW 22:09:06 16° N 22:11:13 10° NE visible
09 Aug - 23:43:12 10° NW 23:46:14 35° NNE 23:49:17 10° E visible
10 Aug - 01:19:41 10° WNW 01:22:38 31° SW 01:25:33 10° SSE night (unlit)
10 Aug - 17:58:39 10° SW 18:01:51 59° SE 18:05:05 10° ENE daylight
10 Aug - 19:35:42 10° W 19:38:29 25° NNW 19:41:16 10° NE daylight
10 Aug - 21:13:44 10° NW 21:15:44 15° N 21:17:44 10° NE visible
10 Aug - 22:50:14 10° NW 22:52:59 24° NNE 22:55:45 10° ENE visible
